GW2646 Weather Reports


Display with metric or nautical units.
time (UTC)temp
F
wind
direction
speed
MPH
gust
MPH
rain 1hr
in
rain 24hr
in
rain mn
in
humidity
%
barometer
mb
20260509233058 66 327 1.0 8.0 0.00 0.00 0.00 65 1017.7
20260509232548 66 327 2.0 8.0 0.00 0.00 0.00 64 1017.8
20260509232047 66 0 2.0 6.0 0.00 0.00 0.00 65 1018.0
20260509231557 66 242 1.0 8.0 0.00 0.00 0.00 64 1018.0
20260509231046 66 322 2.0 8.0 0.00 0.00 0.00 65 1018.1
20260509230545 66 298 3.0 9.0 0.00 0.00 0.00 64 1018.1
20260509230056 66 74 3.0 9.0 0.00 0.00 0.00 65 1018.2
20260509225547 66 324 2.0 11.0 0.00 0.00 0.00 63 1018.5
20260509225046 67 302 1.0 11.0 0.00 0.00 0.00 60 1018.4
20260509224550 66 307 3.0 10.0 0.00 0.00 0.00 64 1018.6
20260509224048 67 217 2.0 8.0 0.00 0.00 0.00 64 1018.6
20260509223549 66 325 3.0 8.0 0.00 0.00 0.00 64 1018.6
20260509223052 66 0 4.0 11.0 0.00 0.00 0.00 63 1018.6
20260509222546 66 329 4.0 11.0 0.00 0.00 0.00 64 1018.6
20260509222046 66 293 2.0 9.0 0.00 0.00 0.00 64 1018.7
20260509221555 67 321 1.0 8.0 0.00 0.00 0.00 63 1018.7
20260509221145 67 288 1.0 9.0 0.00 0.00 0.00 62 1018.7
20260509220546 67 329 1.0 9.0 0.00 0.00 0.00 63 1018.7
20260509220051 66 315 4.0 10.0 0.00 0.00 0.00 63 1018.8
20260509215547 66 330 2.0 11.0 0.00 0.00 0.00 63 1018.9
20260509215047 66 42 5.0 11.0 0.00 0.00 0.00 64 1018.8
20260509214610 66 251 4.0 12.0 0.00 0.00 0.00 64 1018.9
20260509214046 67 316 3.0 14.0 0.00 0.00 0.00 63 1019.0
20260509213545 66 245 3.0 14.0 0.00 0.00 0.00 63 1019.0
20260509213053 66 336 3.0 10.0 0.00 0.00 0.00 63 1019.1
20260509212546 66 0 3.0 9.0 0.00 0.00 0.00 63 1019.2
20260509212047 67 300 3.0 11.0 0.00 0.00 0.00 63 1019.2
20260509211552 67 294 4.0 11.0 0.00 0.00 0.00 62 1019.3
20260509211047 67 233 3.0 9.0 0.00 0.00 0.00 62 1019.3
20260509210544 67 332 2.0 8.0 0.00 0.00 0.00 60 1019.3
20260509210100 67 15 1.0 7.0 0.00 0.00 0.00 61 1019.2
20260509205546 67 0 2.0 9.0 0.00 0.00 0.00 62 1019.2
20260509205046 66 340 2.0 9.0 0.00 0.00 0.00 62 1019.3
20260509204554 67 303 2.0 7.0 0.00 0.00 0.00 61 1019.3
20260509204044 66 0 3.0 7.0 0.00 0.00 0.00 61 1019.3
20260509203544 66 307 2.0 4.0 0.00 0.00 0.00 62 1019.3
20260509203059 66 338 1.0 4.0 0.00 0.00 0.00 62 1019.2
20260509202548 67 5 1.0 8.0 0.00 0.00 0.00 60 1019.3
20260509202046 65 317 2.0 8.0 0.00 0.00 0.00 63 1019.4
20260509201551 66 302 0.0 6.0 0.00 0.00 0.00 63 1019.4
20260509201047 65 0 3.0 5.0 0.00 0.00 0.00 64 1019.5
20260509200548 66 338 1.0 5.0 0.00 0.00 0.00 62 1019.6
20260509200056 66 0 1.0 7.0 0.00 0.00 0.00 61 1019.7
20260509195545 65 319 1.0 8.0 0.00 0.00 0.00 64 1019.7
20260509195048 64 282 3.0 8.0 0.00 0.00 0.00 64 1019.8
20260509194554 65 26 1.0 8.0 0.00 0.00 0.00 65 1019.8
20260509194050 64 298 2.0 7.0 0.00 0.00 0.00 65 1019.8
20260509193547 64 14 1.0 7.0 0.00 0.00 0.00 65 1019.9
20260509193058 65 292 3.0 7.0 0.00 0.00 0.00 63 1020.0
20260509192548 65 329 2.0 7.0 0.00 0.00 0.00 62 1020.0
20260509192048 64 322 2.0 8.0 0.00 0.00 0.00 66 1020.2
20260509191600 64 284 2.0 8.0 0.00 0.00 0.00 65 1020.2
20260509191048 64 327 1.0 7.0 0.00 0.00 0.00 68 1020.1
20260509190544 63 269 2.0 7.0 0.00 0.00 0.00 66 1020.1
20260509190056 64 295 1.0 7.0 0.00 0.00 0.00 65 1020.2
20260509185546 64 225 1.0 7.0 0.00 0.00 0.00 67 1020.2
20260509185046 63 329 2.0 7.0 0.00 0.00 0.00 67 1020.4
20260509184559 63 304 1.0 8.0 0.00 0.00 0.00 67 1020.5
20260509184045 63 311 2.0 8.0 0.00 0.00 0.00 67 1020.5
20260509183543 63 297 1.0 5.0 0.00 0.00 0.00 67 1020.5
20260509183059 63 244 2.0 5.0 0.00 0.00 0.00 66 1020.5
20260509182549 63 289 1.0 6.0 0.00 0.00 0.00 66 1020.5
20260509182044 63 11 2.0 6.0 0.00 0.00 0.00 66 1020.5
20260509181554 63 17 2.0 6.0 0.00 0.00 0.00 67 1020.5
20260509181047 63 309 0.0 9.0 0.00 0.00 0.00 66 1020.6
20260509180547 63 325 3.0 9.0 0.00 0.00 0.00 66 1020.5
20260509180050 63 193 3.0 7.0 0.00 0.00 0.00 65 1020.5
20260509175549 62 203 0.0 6.0 0.00 0.00 0.00 67 1020.5
20260509175047 62 249 2.0 6.0 0.00 0.00 0.00 67 1020.6
20260509174603 62 319 0.0 5.0 0.00 0.00 0.00 67 1020.6
20260509174045 61 352 3.0 5.0 0.00 0.00 0.00 67 1020.6
20260509173545 61 360 0.0 5.0 0.00 0.00 0.00 67 1020.7
20260509173052 61 35 2.0 8.0 0.00 0.00 0.00 66 1020.7
20260509172547 61 145 0.0 8.0 0.00 0.00 0.00 69 1020.7
20260509172046 61 223 3.0 8.0 0.00 0.00 0.00 70 1020.8
20260509171550 61 0 0.0 4.0 0.00 0.00 0.00 69 1020.9
20260509171047 60 307 1.0 5.0 0.00 0.00 0.00 68 1020.9
20260509170547 60 0 1.0 5.0 0.00 0.00 0.00 66 1020.9
20260509170051 60 352 1.0 5.0 0.00 0.00 0.00 70 1020.9
20260509165544 60 307 0.0 4.0 0.00 0.00 0.00 71 1020.9
20260509165046 59 342 1.0 5.0 0.00 0.00 0.00 71 1020.9
20260509164551 59 10 0.0 5.0 0.00 0.00 0.00 72 1021.0
20260509164045 58 310 2.0 4.0 0.00 0.00 0.00 73 1021.1
20260509163546 59 360 1.0 4.0 0.00 0.00 0.00 73 1021.2
20260509163051 58 298 0.0 4.0 0.00 0.00 0.00 73 1021.3
20260509162547 58 0 2.0 4.0 0.00 0.00 0.00 73 1021.4
20260509162045 58 331 0.0 2.0 0.00 0.00 0.00 77 1021.5
20260509161550 58 332 0.0 4.0 0.00 0.00 0.00 76 1021.4
20260509161045 57 0 0.0 4.0 0.00 0.00 0.00 76 1021.5
20260509160546 57 329 0.0 3.0 0.00 0.00 0.00 77 1021.6
20260509160055 56 0 0.0 3.0 0.00 0.00 0.00 78 1021.5
20260509155549 56 0 0.0 3.0 0.00 0.00 0.00 79 1021.6
20260509155045 56 0 0.0 4.0 0.00 0.00 0.00 78 1021.7
20260509154553 55 0 0.0 4.0 0.00 0.00 0.00 80 1021.7
20260509154046 55 350 1.0 4.0 0.00 0.00 0.00 81 1021.6
20260509153548 55 0 0.0 3.0 0.00 0.00 0.00 81 1021.6
20260509153110 55 0 0.0 4.0 0.00 0.00 0.00 82 1021.7
20260509152547 54 142 1.0 4.0 0.00 0.00 0.00 82 1021.8
20260509152047 54 0 0.0 2.0 0.00 0.00 0.00 83 1021.8
20260509151553 54 0 0.0 2.0 0.00 0.00 0.00 85 1021.8
20260509151047 53 0 0.0 2.0 0.00 0.00 0.00 85 1021.9
20260509150550 53 0 0.0 2.0 0.00 0.00 0.00 86 1021.9
20260509150054 53 0 0.0 2.0 0.00 0.00 0.00 87 1022.0
20260509145548 52 137 0.0 2.0 0.00 0.00 0.00 88 1022.1
20260509145047 52 137 0.0 2.0 0.00 0.00 0.00 89 1022.0
20260509144552 52 0 0.0 1.0 0.00 0.00 0.00 90 1022.1
20260509144048 51 0 0.0 1.0 0.00 0.00 0.00 91 1022.1
20260509143546 51 0 0.0 0.0 0.00 0.00 0.00 91 1022.1
20260509143052 51 0 0.0 0.0 0.00 0.00 0.00 91 1022.1
20260509142546 51 0 0.0 0.0 0.00 0.00 0.00 91 1022.1
20260509142047 51 0 0.0 0.0 0.00 0.00 0.00 92 1022.2
20260509141554 51 0 0.0 0.0 0.00 0.00 0.00 92 1022.2
20260509141047 51 0 0.0 0.0 0.00 0.00 0.00 92 1022.2
20260509140546 50 0 0.0 0.0 0.00 0.00 0.00 92 1022.3
20260509140052 50 0 0.0 0.0 0.00 0.00 0.00 91 1022.3
20260509135548 50 0 0.0 0.0 0.00 0.00 0.00 91 1022.3
20260509135047 50 0 0.0 0.0 0.00 0.00 0.00 91 1022.4
20260509134551 50 0 0.0 0.0 0.00 0.00 0.00 91 1022.4
20260509134046 51 0 0.0 0.0 0.00 0.00 0.00 91 1022.4
20260509133549 51 0 0.0 0.0 0.00 0.00 0.00 91 1022.3
20260509133048 51 0 0.0 0.0 0.00 0.00 0.00 91 1022.3
20260509132546 51 0 0.0 0.0 0.00 0.00 0.00 91 1022.3
20260509132046 51 0 0.0 0.0 0.00 0.00 0.00 91 1022.4
20260509131551 51 0 0.0 0.0 0.00 0.00 0.00 91 1022.3
20260509131046 51 0 0.0 0.0 0.00 0.00 0.00 91 1022.3
20260509130548 50 0 0.0 0.0 0.00 0.00 0.00 90 1022.3
20260509130105 50 0 0.0 0.0 0.00 0.00 0.00 89 1022.2
20260509125547 51 0 0.0 0.0 0.00 0.00 0.00 89 1022.2
20260509125046 51 0 0.0 0.0 0.00 0.00 0.00 89 1022.3
20260509124556 51 0 0.0 0.0 0.00 0.00 0.00 89 1022.3
20260509124048 51 0 0.0 0.0 0.00 0.00 0.00 88 1022.4
20260509123546 51 0 0.0 0.0 0.00 0.00 0.00 88 1022.4
20260509123053 51 0 0.0 0.0 0.00 0.00 0.00 88 1022.4
20260509122546 51 0 0.0 0.0 0.00 0.00 0.00 88 1022.5
20260509122046 51 0 0.0 0.0 0.00 0.00 0.00 88 1022.4
20260509121611 51 0 0.0 0.0 0.00 0.00 0.00 88 1022.5
20260509121049 51 0 0.0 0.0 0.00 0.00 0.00 88 1022.4
20260509120551 51 0 0.0 0.0 0.00 0.00 0.00 88 1022.4
20260509120048 51 0 0.0 0.0 0.00 0.00 0.00 88 1022.5
20260509115545 51 0 0.0 0.0 0.00 0.00 0.00 87 1022.6
20260509115045 51 0 0.0 0.0 0.00 0.00 0.00 87 1022.5
20260509114558 51 0 0.0 0.0 0.00 0.00 0.00 87 1022.6
20260509114046 51 0 0.0 0.0 0.00 0.00 0.00 87 1022.5
20260509113546 51 0 0.0 0.0 0.00 0.00 0.00 87 1022.6
20260509113056 51 0 0.0 0.0 0.00 0.00 0.00 87 1022.6
20260509112545 52 0 0.0 0.0 0.00 0.00 0.00 87 1022.7
20260509112045 52 0 0.0 0.0 0.00 0.00 0.00 86 1022.7
20260509111549 52 0 0.0 0.0 0.00 0.00 0.00 86 1022.7
20260509111045 52 0 0.0 0.0 0.00 0.00 0.00 86 1022.8
20260509110545 52 0 0.0 0.0 0.00 0.00 0.00 86 1022.8
20260509110053 52 0 0.0 0.0 0.00 0.00 0.00 86 1022.8
20260509105549 52 0 0.0 2.0 0.00 0.00 0.00 86 1022.8
20260509105045 52 0 0.0 2.0 0.00 0.00 0.00 86 1022.8
20260509104551 52 0 0.0 2.0 0.00 0.00 0.00 86 1022.8
20260509104046 52 0 0.0 0.0 0.00 0.00 0.00 85 1022.8
20260509103546 52 0 0.0 0.0 0.00 0.00 0.00 85 1022.8
20260509103058 52 0 0.0 0.0 0.00 0.00 0.00 85 1022.7
20260509102545 52 0 0.0 8.0 0.00 0.00 0.00 85 1022.8
20260509102046 52 0 0.0 8.0 0.00 0.00 0.00 85 1022.8
20260509101600 52 137 1.0 8.0 0.00 0.00 0.00 84 1022.8
20260509101045 52 0 1.0 8.0 0.00 0.00 0.00 84 1022.7
20260509100545 52 161 4.0 8.0 0.00 0.00 0.00 84 1022.8
20260509100050 52 163 0.0 5.0 0.00 0.00 0.00 84 1022.7
20260509095545 52 0 0.0 3.0 0.00 0.00 0.00 84 1022.8
20260509095045 53 0 0.0 5.0 0.00 0.00 0.00 84 1022.7
20260509094606 53 0 0.0 5.0 0.00 0.00 0.00 84 1022.7
20260509094052 53 0 0.0 8.0 0.00 0.00 0.00 84 1022.7
20260509093547 53 181 0.0 8.0 0.00 0.00 0.00 84 1022.7
20260509093056 53 167 3.0 8.0 0.00 0.00 0.00 84 1022.6
20260509092546 53 0 3.0 7.0 0.00 0.00 0.00 84 1022.7
20260509092047 53 165 3.0 9.0 0.00 0.00 0.00 84 1022.6
20260509091558 53 161 3.0 9.0 0.00 0.00 0.00 85 1022.6
20260509091047 53 159 2.0 7.0 0.00 0.00 0.00 85 1022.7
20260509090545 52 161 1.0 7.0 0.00 0.00 0.00 85 1022.7
20260509085544 52 163 1.0 6.0 0.00 0.00 0.00 86 1022.6
20260509085046 52 155 1.0 6.0 0.00 0.00 0.00 86 1022.6
20260509084558 52 0 1.0 7.0 0.00 0.00 0.00 87 1022.7
20260509084046 52 0 0.0 7.0 0.00 0.00 0.00 87 1022.7
20260509083545 52 165 0.0 4.0 0.00 0.00 0.00 88 1022.7
20260509083059 52 0 0.0 1.0 0.00 0.00 0.00 88 1022.7
20260509082545 52 0 0.0 1.0 0.00 0.00 0.00 88 1022.7
20260509082045 52 0 0.0 0.0 0.00 0.00 0.00 88 1022.6
20260509081552 52 0 0.0 0.0 0.00 0.00 0.00 88 1022.7
20260509081047 52 0 0.0 0.0 0.00 0.00 0.00 88 1022.6
20260509080547 52 0 0.0 0.0 0.00 0.00 0.00 87 1022.6
20260509080054 52 0 0.0 0.0 0.00 0.00 0.00 87 1022.6
20260509075547 52 0 0.0 0.0 0.00 0.00 0.00 87 1022.6
20260509075047 52 0 0.0 0.0 0.00 0.00 0.00 87 1022.6
20260509074556 52 0 0.0 0.0 0.00 0.00 0.00 87 1022.6
20260509074046 52 0 0.0 0.0 0.00 0.00 0.00 86 1022.5
20260509073546 52 0 0.0 0.0 0.00 0.00 0.00 85 1022.5
20260509073055 52 0 0.0 0.0 0.00 0.00 0.00 85 1022.5
20260509072546 53 0 0.0 0.0 0.00 0.00 0.00 85 1022.4
20260509072045 53 0 0.0 0.0 0.00 0.00 0.00 85 1022.4
20260509071550 53 0 0.0 0.0 0.00 0.00 0.00 84 1022.3
20260509071045 53 0 0.0 0.0 0.00 0.00 0.00 84 1022.3
20260509070545 53 0 0.0 0.0 0.00 0.00 0.00 84 1022.3
20260509070053 53 0 0.0 0.0 0.00 0.00 0.00 84 1022.3
20260509065549 53 0 0.0 0.0 0.00 0.00 0.00 84 1022.4
20260509065047 53 0 0.0 1.0 0.00 0.00 0.00 84 1022.3
20260509064550 53 0 0.0 1.0 0.00 0.00 0.00 83 1022.3
20260509064047 53 0 0.0 1.0 0.00 0.00 0.00 83 1022.3
20260509063546 53 0 0.0 1.0 0.00 0.00 0.00 83 1022.3
20260509063054 54 0 0.0 1.0 0.00 0.00 0.00 83 1022.3
20260509062547 54 0 0.0 1.0 0.00 0.00 0.00 83 1022.3
20260509062047 54 0 0.0 2.0 0.00 0.00 0.00 83 1022.2
20260509061550 53 0 0.0 2.0 0.00 0.00 0.00 83 1022.3
20260509061046 53 0 0.0 0.0 0.00 0.00 0.00 84 1022.2
20260509060547 53 0 0.0 0.0 0.00 0.00 0.00 83 1022.2
20260509060107 53 0 0.0 0.0 0.00 0.00 0.00 83 1022.2
20260509055544 54 0 0.0 0.0 0.00 0.00 0.00 83 1022.2
20260509055045 54 0 0.0 0.0 0.00 0.00 0.00 83 1022.1
20260509054551 54 0 0.0 0.0 0.00 0.00 0.00 82 1022.1
20260509054046 54 0 0.0 0.0 0.00 0.00 0.00 82 1022.1
20260509053546 54 0 0.0 0.0 0.00 0.00 0.00 81 1022.1
20260509053111 54 0 0.0 1.0 0.00 0.00 0.00 81 1022.0
20260509052549 54 0 0.0 1.0 0.00 0.00 0.00 81 1022.1
20260509052046 54 0 0.0 1.0 0.00 0.00 0.00 80 1022.0
20260509051554 54 0 0.0 1.0 0.00 0.00 0.00 80 1022.1
20260509051050 54 0 0.0 1.0 0.00 0.00 0.00 80 1022.1
20260509050551 54 0 0.0 1.0 0.00 0.00 0.00 80 1022.1
20260509050052 54 0 0.0 0.0 0.00 0.00 0.00 81 1022.1
20260509045547 54 0 0.0 0.0 0.00 0.00 0.00 80 1022.1
20260509045046 54 0 0.0 0.0 0.00 0.00 0.00 80 1022.0
20260509044621 54 0 0.0 0.0 0.00 0.00 0.00 81 1022.0
20260509044047 54 0 0.0 0.0 0.00 0.00 0.00 81 1022.0
20260509043545 54 0 0.0 0.0 0.00 0.00 0.00 80 1021.9
20260509043125 54 0 0.0 0.0 0.00 0.00 0.00 80 1021.9
20260509042547 55 0 0.0 0.0 0.00 0.00 0.00 80 1021.8
20260509042048 55 0 0.0 2.0 0.00 0.00 0.00 80 1021.7
20260509041553 55 0 0.0 2.0 0.00 0.00 0.00 80 1021.6
20260509041046 55 0 0.0 2.0 0.00 0.00 0.00 81 1021.6
20260509040545 55 0 0.0 0.0 0.00 0.00 0.00 82 1021.6
20260509040057 55 0 0.0 0.0 0.00 0.00 0.00 80 1021.5
20260509035546 55 0 0.0 0.0 0.00 0.00 0.00 79 1021.6
20260509035047 55 0 0.0 0.0 0.00 0.00 0.00 79 1021.5
20260509034552 55 0 0.0 0.0 0.00 0.00 0.00 78 1021.5
20260509034047 56 0 0.0 0.0 0.00 0.00 0.00 77 1021.5
20260509033549 56 0 0.0 0.0 0.00 0.00 0.00 76 1021.5
20260509033051 56 0 0.0 0.0 0.00 0.00 0.00 75 1021.5
20260509032546 56 0 0.0 0.0 0.00 0.00 0.00 75 1021.5
20260509032046 57 0 0.0 0.0 0.00 0.00 0.00 75 1021.5
20260509031600 57 0 0.0 0.0 0.00 0.00 0.00 76 1021.5
20260509031047 57 0 0.0 0.0 0.00 0.00 0.00 74 1021.5
20260509030546 57 0 0.0 0.0 0.00 0.00 0.00 73 1021.5
20260509030110 57 0 0.0 0.0 0.00 0.00 0.00 72 1021.4
20260509025545 58 0 0.0 0.0 0.00 0.00 0.00 71 1021.4
20260509025049 58 0 0.0 0.0 0.00 0.00 0.00 70 1021.4
20260509024553 58 0 0.0 2.0 0.00 0.00 0.00 69 1021.3
20260509024046 58 0 0.0 2.0 0.00 0.00 0.00 70 1021.3
20260509023547 58 0 0.0 0.0 0.00 0.00 0.00 71 1021.3
20260509023055 58 0 0.0 0.0 0.00 0.00 0.00 69 1021.4
20260509022547 59 0 0.0 0.0 0.00 0.00 0.00 68 1021.3
20260509022049 59 0 0.0 0.0 0.00 0.00 0.00 65 1021.4
20260509021553 59 0 0.0 0.0 0.00 0.00 0.00 67 1021.4
20260509021049 59 0 0.0 0.0 0.00 0.00 0.00 67 1021.3
20260509020547 59 0 0.0 0.0 0.00 0.00 0.00 67 1021.2
20260509020104 59 0 0.0 1.0 0.00 0.00 0.00 64 1021.3
20260509015547 59 0 0.0 1.0 0.00 0.00 0.00 64 1021.3
20260509015046 59 0 0.0 1.0 0.00 0.00 0.00 64 1021.3
20260509014549 59 0 0.0 1.0 0.00 0.00 0.00 62 1021.2
20260509014048 59 0 0.0 3.0 0.00 0.00 0.00 64 1021.3
20260509013547 59 0 0.0 3.0 0.00 0.00 0.00 61 1021.3
20260509013057 59 0 0.0 3.0 0.00 0.00 0.00 62 1021.2
20260509012545 59 0 0.0 3.0 0.00 0.00 0.00 62 1021.4
20260509012046 59 189 0.0 3.0 0.00 0.00 0.00 61 1021.3
20260509011555 59 0 1.0 3.0 0.00 0.00 0.00 62 1021.3
20260509011045 59 0 0.0 3.0 0.00 0.00 0.00 62 1021.2
20260509010545 59 0 0.0 7.0 0.00 0.00 0.00 62 1021.2
20260509010053 59 198 2.0 7.0 0.00 0.00 0.00 62 1021.3
20260509005545 59 229 0.0 5.0 0.00 0.00 0.00 61 1021.3
20260509005047 60 0 0.0 7.0 0.00 0.00 0.00 61 1021.3
20260509004559 60 0 3.0 7.0 0.00 0.00 0.00 60 1021.3
20260509004045 60 0 0.0 4.0 0.00 0.00 0.00 61 1021.2
20260509003547 59 193 0.0 5.0 0.00 0.00 0.00 61 1021.2
20260509003055 60 211 2.0 6.0 0.00 0.00 0.00 61 1021.2
20260509002546 59 0 2.0 7.0 0.00 0.00 0.00 61 1021.2
20260509002046 59 219 3.0 9.0 0.00 0.00 0.00 62 1021.2
20260509001553 59 221 2.0 9.0 0.00 0.00 0.00 61 1021.2
20260509001045 59 209 1.0 8.0 0.00 0.00 0.00 62 1021.1
20260509000545 59 259 2.0 9.0 0.00 0.00 0.00 61 1021.2
20260509000055 59 213 4.0 10.0 0.00 0.00 0.00 62 1021.2
20260508235546 59 186 3.0 10.0 0.00 0.00 0.00 61 1021.1
20260508235046 59 261 4.0 10.0 0.00 0.00 0.00 61 1021.1
20260508234551 59 193 2.0 10.0 0.00 0.00 0.00 61 1021.0
20260508234047 59 184 1.0 10.0 0.00 0.00 0.00 61 1021.1
20260508233547 59 240 1.0 10.0 0.00 0.00 0.00 61 1021.0